NOAA 16 DEB, 41085

Orbit data source: Space-Track

NOAA 16 DEB, 41085 is space debris in SSO originally from a launch on Thu, 21 Sep 2000 UTC launched from the Air Force Western Test Range (AFWTR). Debris objects in space refer to the collection of defunct objects orbiting the Earth. Examples of debris include non-operational satellites, rocket bodies, and fragments generated from explosions, collisions, or faulty payload assembly.

Loading next visibility...
Identifier
41085, 2000-055AU
Orbit
SSO
Country
Flag of USUS
Related business
Manufacturer
Unknown
Mission
Spacecraft
Bus & Motor
Unknown
Mass
Unknown
Launch date (UTC)
2000-09-21 (26 years ago)
Launch vehicle
Unknown
Launch site
Air Force Western Test Range (AFWTR)
Object type
Payload
Rocket body
Debris
Shape & HBR
Unknown shape, 0.1 m
Radar Cross Section
Medium (>0.1 m² and <1 m²)

Expand to show TLE details & history
Last TLE update: 1 day ago

TLE from 1 day ago
0 NOAA 16 DEB
1 41085U 00055AU  26206.18452941  .00001132  00000-0  51114-3 0  9990
2 41085  98.7012 295.2781 0020949 133.8846 226.4067 14.23989576551673
Epoch: 2026-07-25T04:25Z
TLE epoch observation values (Epoch: 2026-07-25T04:25:43.341Z)
Latitude
-0.00002°
Longitude
-74.05294°
Altitude
825.217 km
Speed
7.435 km/s
True Right ascension
19h 41m 06s
True Declination
0° 00' 00"
Sunlit
Object was in full shadow at epoch
Visualization orbit readout
Latitude
Unknown
Longitude
Unknown
Altitude
Unknown
Speed
Unknown
Apparent Right ascension
Unknown
Apparent Declination
Unknown
Sunlit
N/A
Visualization observer readout
Local Sidereal Time
18:54:20
Azimuth
Unknown
Elevation
Unknown
Doppler factor
Unknown
Orbital elements
Apogee altitude
824.101 km
Perigee altitude
793.988 km
Semi-major axis
7,187.182 km
Eccentricity
0.00209
Inclination
98.7012°
RAAN
295.2781°
Arg. of periapsis
133.8846°
True anomaly
226.23315°
Mean anomaly
226.4067°
Eccentric anomaly
226.31989°
Mean motion
3.56209 °/min
Orbital period
101.06 mins
BSTAR
0.00051114
Loading maneuver chart data...
Computing Atmospheric mass density...

Documentation

Showing up to 5 results
|